STARLINK-1535 (46050 NORAD) Tracking and Keplerian Element Data

This shows tracking and keplerian element data for the satellite.

Feedback or suggestion? Click here.




ElementValue
Catalog46050
NameSTARLINK-1535
Epoch Orbit1844
Epoch Day332.71696868
Epoch Year2020
RAAN131.6696
Inclination52.9911
Eccentricity0.0002087
Argument of Perigee85.5422
Mean Anonmoly274.5804
Mean Motion15.05586121
Decay Rate4.67E-06
L11 46050U 20055Z 20332.71696868 .00000467 00000-0 51246-4 0 9997
L22 46050 52.9911 131.6696 0002087 85.5422 274.5804 15.05586121 18440

Live tracking and technical data element details for STARLINK-1535 (NORAD 46050). STARLINK-1535 can be tracked NOW for your location showing map with azimuth and elevation plus other details from your city location.

Track the satellite on the map from your city or location and see movement details for azimuth, elevation, latitude, longitude, range, height, and movement on the map or in text.







IsCatalogInMostPopularTable: catalog: 46050, numindb: 25
Update: records affected: 1



GetName: 46050 STARLINK-1535

Hit Count: updated at: Sun, 29 Nov 2020 10:39:39 GMT